Helicity
151 128 147 136 135 121 126 132 119 119 114 98 88 94 116 111 107 106 100 95 86 83 79 80 71 69 53
171 181 152 136 136 146 129 127 127 130 119 111 103 113 120 109 105 117 106 100 86 74 88 70 53 54 54
172 196 189 181 185 171 144 141 135 158 153 137 132 124 112 120 127 132 113 98 85 85 72 61 54 51 50
181 220 209 177 178 171 154 149 143 156 152 155 144 121 140 153 151 133 121 99 86 76 67 57 54 53 57
186 189 188 191 163 165 167 168 149 145 144 134 135 106 151 159 139 136 117 98 92 79 64 58 52 56 64
148 162 145 194 208 199 210 180 142 142 161 142 119 120 160 146 143 139 122 106 90 72 74 59 48 58 63
137 130 174 181 257 232 197 185 171 156 164 131 123 127 160 137 137 134 130 100 83 71 85 71 61 57 60
101 118 132 184 215 200 216 227 219 191 156 152 131 136 141 132 123 133 115 102 77 69 83 79 73 57 70
122 117 91 154 264 290 248 242 209 165 162 163 140 129 141 138 123 105 112 86 72 80 86 82 81 76 93
224 231 189 200 213 198 231 238 206 175 132 150 128 158 155 125 109 116 113 67 73 77 76 68 71 104 104
236 255 283 271 264 249 216 188 171 169 125 137 155 174 160 154 130 117 113 96 88 73 46 54 63 92 106
217 248 279 299 291 279 248 226 203 166 143 153 175 157 167 153 132 107 94 82 84 82 74 51 68 85 82
241 253 258 253 278 273 255 244 234 183 176 174 154 149 155 138 111 121 95 97 88 75 69 79 104 110 102
289 310 286 262 239 231 211 178 183 201 202 167 139 128 122 114 124 123 121 119 105 107 96 97 113 107 109
294 296 267 248 248 228 179 166 179 174 160 148 111 82 88 105 121 117 121 100 111 111 98 101 113 95 107
303 297 265 244 227 196 167 176 192 180 181 140 121 111 110 94 93 131 118 127 116 104 91 93 113 120 109
295 276 266 228 205 191 223 216 210 193 150 120 119 112 133 139 94 71 129 135 136 116 107 110 128 142 100
Wind_Speed
15 12 7 8 15 18 23 27 32 35 38 42 46 49 52 54 56 61 64 65 66 69 71 73 77 79 81
13 11 12 8 13 18 22 26 31 36 36 40 43 48 52 53 57 60 62 63 64 67 73 75 76 79 81
15 13 14 10 16 21 23 27 31 36 38 40 44 48 53 54 56 59 60 62 64 68 71 74 77 79 82
20 13 14 15 16 18 22 28 29 35 38 40 44 48 54 52 55 57 58 61 64 68 70 73 76 78 81
16 17 15 13 12 18 24 26 29 33 37 41 46 48 51 50 52 54 57 61 65 68 68 72 76 78 83
19 17 16 15 13 17 23 28 34 33 38 42 43 48 47 46 50 52 57 60 64 66 68 74 77 81 84
21 20 19 10 10 16 21 27 34 36 39 47 45 49 45 43 44 50 56 62 66 66 67 75 78 82 84
23 22 22 9 10 17 19 27 34 38 40 51 49 49 44 44 38 47 54 64 68 67 70 78 81 83 82
23 19 16 9 10 15 20 26 38 40 42 49 50 50 49 48 40 41 53 64 67 65 75 80 82 83 80
20 19 18 15 15 19 18 27 39 44 42 47 48 53 57 46 44 44 49 63 64 67 79 83 84 81 81
18 17 20 22 22 25 25 29 38 46 40 44 48 50 49 52 48 47 51 63 63 69 79 82 85 86 85
17 19 17 17 22 25 28 34 38 38 36 42 47 48 53 53 53 50 55 54 65 77 78 80 83 85 83
21 19 19 17 19 24 29 33 38 40 42 44 43 43 47 51 53 56 64 57 62 80 82 85 86 84 87
17 14 14 16 21 24 28 31 38 42 44 45 46 47 48 44 48 56 57 67 73 77 79 80 81 77 75
8 10 14 18 21 25 28 34 39 38 41 47 48 45 40 41 51 54 62 70 73 79 81 84 82 78 76
6 9 13 16 19 25 30 34 36 39 43 45 51 48 47 45 44 55 63 72 75 76 78 84 84 79 75
12 13 13 13 20 26 27 28 35 38 42 43 49 51 56 60 53 48 67 73 76 79 77 77 79 78 73
Wind_Direction
324 342 347 6 2 8 11 7 7 6 7 7 7 8 7 6 6 3 2 3 3 2 2 1 0 0 358
324 328 328 353 353 359 359 360 359 0 4 5 6 6 4 3 2 2 2 3 3 2 1 0 360 359 358
323 322 330 336 343 348 350 350 354 358 0 3 4 3 1 360 1 2 3 3 3 1 0 0 360 359 358
320 317 320 326 334 337 340 343 348 353 357 360 359 358 358 1 2 3 3 3 2 1 0 360 359 359 358
313 312 312 316 311 331 334 341 345 349 351 352 353 354 357 1 2 3 3 2 1 0 0 359 358 358 357
304 300 302 309 323 326 333 337 338 346 347 348 351 352 356 359 1 2 2 1 0 360 359 358 357 356 355
299 301 304 290 313 324 330 336 340 348 349 346 350 348 354 357 359 1 1 0 359 359 359 357 356 355 354
304 310 314 307 311 322 334 343 346 347 350 345 350 349 353 354 356 360 1 359 359 359 357 355 355 354 354
313 317 319 337 332 337 335 339 338 343 350 347 351 351 353 355 358 358 359 359 358 359 356 355 354 354 354
322 326 333 342 342 335 337 335 339 342 349 349 352 353 350 360 0 357 358 358 358 358 355 355 354 354 354
308 324 327 330 342 342 340 340 340 341 352 353 352 353 354 352 357 360 359 356 358 358 356 355 355 354 353
300 311 325 341 343 348 349 349 353 354 359 356 353 354 353 353 353 357 356 359 359 355 355 355 355 355 355
293 311 328 339 353 352 354 1 1 360 357 358 358 357 356 353 353 354 354 357 359 354 355 354 354 354 352
296 324 336 344 339 342 345 349 350 352 358 0 359 357 354 355 354 353 357 354 354 355 355 355 355 356 356
298 312 316 329 336 342 346 346 345 348 350 354 356 358 359 357 355 357 355 355 356 354 355 354 356 356 357
304 303 311 321 332 342 344 345 346 349 351 354 355 357 358 2 2 357 356 355 355 356 356 354 355 358 359
293 301 311 328 334 341 346 352 348 351 353 356 356 356 354 353 358 4 355 355 355 355 356 356 354 355 358